CW1569 Weather Reports


Display with metric or nautical units.
time (UTC)temp
F
wind
direction
speed
MPH
gust
MPH
rain 1hr
in
rain 24hr
in
rain mn
in
humidity
%
barometer
mb
20260902004835 85 360 2.0 4.0 0.00 0.03 0.01 79 1010.3
20260902004345 85 360 1.0 4.0 0.00 0.03 0.01 79 1010.3
20260902003833 85 360 2.0 4.0 0.00 0.03 0.01 79 1010.4
20260902003325 86 360 2.0 5.0 0.00 0.03 0.01 78 1010.3
20260902002831 86 360 1.0 5.0 0.00 0.03 0.01 78 1010.3
20260902002340 86 185 2.0 4.0 0.00 0.03 0.01 78 1010.3
20260902001828 86 190 0.0 5.0 0.00 0.03 0.01 77 1010.4
20260902001340 87 360 1.0 5.0 0.00 0.03 0.01 76 1010.4
20260902000829 87 180 1.0 4.0 0.00 0.03 0.01 76 1010.4
20260902000338 87 360 2.0 5.0 0.00 0.03 0.01 75 1010.3
20260901235828 87 360 3.0 5.0 0.00 0.03 0.01 75 1010.3
20260901235339 88 360 3.0 5.0 0.00 0.03 0.01 75 1010.4
20260901234829 88 360 3.0 5.0 0.00 0.04 0.01 75 1010.4
20260901234340 88 360 3.0 5.0 0.00 0.04 0.01 74 1010.5
20260901233828 89 360 3.0 6.0 0.00 0.04 0.01 73 1010.4
20260901233337 89 360 3.0 7.0 0.00 0.04 0.01 73 1010.4
20260901232846 89 360 2.0 7.0 0.00 0.04 0.01 73 1010.5
20260901232354 90 360 3.0 5.0 0.00 0.04 0.01 73 1010.6
20260901231825 90 360 3.0 7.0 0.00 0.04 0.01 72 1010.6
20260901231336 90 360 4.0 8.0 0.00 0.04 0.01 72 1010.6
20260901230844 90 360 3.0 8.0 0.00 0.04 0.01 72 1010.5
20260901230332 91 360 1.0 7.0 0.00 0.04 0.01 72 1010.6
20260901225822 91 360 2.0 6.0 0.00 0.04 0.01 72 1010.7
20260901225331 91 360 2.0 6.0 0.00 0.04 0.01 71 1010.7
20260901224836 91 178 4.0 6.0 0.00 0.05 0.01 71 1010.7
20260901224327 92 186 2.0 7.0 0.00 0.05 0.01 72 1010.7
20260901223834 92 360 2.0 9.0 0.00 0.05 0.01 72 1010.6
20260901223324 92 360 2.0 5.0 0.00 0.05 0.01 71 1010.6
20260901222834 92 360 2.0 5.0 0.00 0.05 0.01 71 1010.7
20260901222323 92 207 1.0 6.0 0.00 0.05 0.01 70 1010.8
20260901221832 91 207 1.0 8.0 0.00 0.05 0.01 68 1010.8
20260901221343 92 206 5.0 8.0 0.00 0.05 0.01 65 1010.8
20260901220829 92 360 4.0 7.0 0.00 0.05 0.01 66 1010.8
20260901220339 92 360 2.0 7.0 0.00 0.05 0.01 65 1010.8
20260901215828 93 205 2.0 6.0 0.00 0.05 0.01 65 1010.7
20260901215338 93 360 4.0 6.0 0.00 0.05 0.01 65 1010.6
20260901214828 93 206 3.0 6.0 0.00 0.06 0.01 65 1010.7
20260901214339 93 360 2.0 8.0 0.00 0.06 0.01 63 1010.7
20260901213826 93 360 4.0 8.0 0.00 0.06 0.01 63 1010.8
20260901213335 93 360 3.0 5.0 0.00 0.06 0.01 64 1010.8
20260901212823 93 360 2.0 5.0 0.00 0.06 0.01 63 1010.8
20260901212334 93 360 1.0 7.0 0.00 0.06 0.01 61 1010.8
20260901211822 93 360 2.0 7.0 0.00 0.06 0.01 63 1010.8
20260901211335 93 360 4.0 7.0 0.00 0.06 0.01 62 1010.9
20260901210824 93 205 3.0 6.0 0.00 0.06 0.01 62 1010.8
20260901210331 93 360 2.0 7.0 0.00 0.06 0.01 63 1010.8
20260901205837 93 360 3.0 8.0 0.00 0.06 0.01 61 1010.8
20260901205322 92 360 3.0 8.0 0.00 0.06 0.01 61 1010.9
20260901204830 92 360 5.0 10.0 0.00 0.06 0.01 62 1010.9
20260901204342 92 206 7.0 10.0 0.00 0.06 0.01 61 1011.0
20260901203850 93 360 3.0 9.0 0.00 0.06 0.01 62 1011.0
20260901203337 93 229 5.0 11.0 0.00 0.06 0.01 60 1011.0
20260901202827 93 360 2.0 11.0 0.00 0.06 0.01 60 1011.0
20260901202337 93 360 5.0 9.0 0.00 0.06 0.01 59 1011.0
20260901201825 93 5 2.0 7.0 0.00 0.06 0.01 61 1011.0
20260901201337 93 360 3.0 8.0 0.00 0.06 0.01 62 1011.1
20260901200825 93 259 3.0 8.0 0.00 0.06 0.01 64 1011.1
20260901200336 93 360 3.0 7.0 0.00 0.06 0.01 63 1011.1
20260901195826 92 360 3.0 8.0 0.00 0.06 0.01 63 1011.2
20260901195334 92 360 0.0 10.0 0.00 0.06 0.01 65 1011.3
20260901194821 92 360 5.0 11.0 0.00 0.07 0.01 63 1011.3
20260901194331 91 195 4.0 11.0 0.00 0.07 0.01 64 1011.3
20260901193838 91 208 5.0 10.0 0.00 0.07 0.01 63 1011.3
20260901193347 91 360 6.0 9.0 0.00 0.07 0.01 63 1011.3
20260901192834 91 360 4.0 9.0 0.00 0.07 0.01 65 1011.4
20260901192322 91 360 3.0 10.0 0.00 0.07 0.01 66 1011.5
20260901191827 91 360 5.0 10.0 0.00 0.07 0.01 66 1011.5
20260901191335 91 360 3.0 9.0 0.00 0.07 0.01 68 1011.3
20260901190842 90 360 5.0 9.0 0.00 0.07 0.01 68 1011.3
20260901190351 90 360 4.0 9.0 0.00 0.07 0.01 68 1011.4
20260901185839 90 360 4.0 9.0 0.00 0.07 0.01 70 1011.4
20260901185328 90 360 4.0 8.0 0.00 0.07 0.01 72 1011.3
20260901184838 89 360 5.0 9.0 0.00 0.08 0.01 71 1011.5
20260901184326 89 360 4.0 10.0 0.00 0.08 0.01 74 1011.5
20260901183832 89 360 4.0 12.0 0.00 0.08 0.01 74 1011.6
20260901183321 89 360 4.0 12.0 0.00 0.08 0.01 74 1011.5
20260901182829 88 360 5.0 8.0 0.00 0.08 0.01 74 1011.5
20260901182337 88 360 3.0 8.0 0.00 0.08 0.01 77 1011.5
20260901181844 88 360 5.0 10.0 0.00 0.08 0.01 77 1011.5
20260901181355 88 360 4.0 10.0 0.00 0.08 0.01 77 1011.5
20260901180821 87 360 4.0 9.0 0.00 0.08 0.01 79 1011.5
20260901180330 87 360 3.0 10.0 0.00 0.08 0.01 79 1011.5
20260901175840 86 197 3.0 10.0 0.00 0.08 0.01 80 1011.6
20260901175329 86 360 3.0 8.0 0.00 0.08 0.01 81 1011.6
20260901174835 86 360 4.0 8.0 0.00 0.10 0.01 81 1011.7
20260901174325 86 360 2.0 6.0 0.00 0.10 0.01 83 1011.9
20260901173830 85 211 2.0 9.0 0.00 0.10 0.01 84 1011.9
20260901173340 85 360 2.0 9.0 0.00 0.10 0.01 84 1012.0
20260901172829 85 360 2.0 6.0 0.00 0.10 0.01 83 1011.9
20260901172337 85 360 4.0 6.0 0.00 0.10 0.01 84 1012.0
20260901171825 84 360 3.0 6.0 0.00 0.10 0.01 84 1012.1
20260901171403 84 204 1.0 4.0 0.00 0.10 0.01 87 1012.1
20260901170830 83 214 1.0 4.0 0.00 0.10 0.01 87 1012.1
20260901170340 83 360 1.0 5.0 0.00 0.10 0.01 87 1012.1
20260901165826 82 360 1.0 4.0 0.00 0.10 0.01 88 1012.1
20260901165337 82 206 2.0 4.0 0.00 0.10 0.01 88 1012.2
20260901164827 82 206 0.0 4.0 0.00 0.11 0.01 90 1012.2
20260901164336 82 206 1.0 4.0 0.01 0.11 0.01 88 1012.3
20260901163823 82 360 1.0 5.0 0.01 0.11 0.01 87 1012.4
20260901163332 82 360 0.0 6.0 0.01 0.11 0.01 86 1012.4
20260901162823 83 360 0.0 5.0 0.01 0.11 0.01 87 1012.8
20260901162357 83 360 1.0 5.0 0.01 0.11 0.01 87 1012.8
20260901161825 83 199 2.0 5.0 0.01 0.11 0.01 87 1012.5
20260901161359 83 360 2.0 7.0 0.01 0.11 0.01 85 1012.5
20260901160846 83 360 1.0 7.0 0.01 0.11 0.01 84 1012.4
20260901160355 84 360 0.0 4.0 0.01 0.11 0.01 84 1012.4
20260901155823 83 360 2.0 5.0 0.01 0.11 0.01 85 1012.3
20260901155332 83 360 2.0 5.0 0.01 0.11 0.01 86 1012.3
20260901154908 82 184 1.0 4.0 0.01 0.13 0.01 87 1012.3
20260901154355 82 195 0.0 1.0 0.01 0.13 0.01 89 1012.3
20260901153822 82 227 0.0 0.0 0.00 0.12 0.00 87 1012.3
20260901153356 82 360 0.0 0.0 0.00 0.12 0.00 88 1012.3
20260901152825 81 360 0.0 0.0 0.00 0.12 0.00 88 1012.4
20260901152335 81 360 0.0 0.0 0.00 0.12 0.00 88 1012.4
20260901151823 81 360 0.0 0.0 0.00 0.12 0.00 87 1012.2
20260901151400 81 360 0.0 1.0 0.00 0.12 0.00 88 1012.1
20260901150826 81 207 0.0 1.0 0.00 0.12 0.00 88 1012.0
20260901150333 81 207 0.0 1.0 0.00 0.12 0.00 88 1012.2
20260901145822 81 205 0.0 0.0 0.00 0.12 0.00 88 1012.1
20260901145328 81 360 0.0 1.0 0.00 0.12 0.00 88 1012.1
20260901144837 81 360 0.0 1.0 0.00 0.14 0.00 88 1012.2
20260901144327 80 360 0.0 0.0 0.00 0.14 0.00 88 1012.0
20260901143836 80 205 0.0 4.0 0.00 0.14 0.00 88 1012.1
20260901143325 80 207 1.0 4.0 0.00 0.14 0.00 88 1012.1
20260901142902 80 360 1.0 5.0 0.00 0.14 0.00 88 1012.1
20260901142330 80 360 2.0 5.0 0.00 0.14 0.00 88 1012.1
20260901141905 80 360 1.0 5.0 0.00 0.14 0.00 89 1012.2
20260901141354 79 207 1.0 6.0 0.00 0.14 0.00 89 1012.1
20260901140840 79 360 0.0 6.0 0.00 0.14 0.00 90 1012.1
20260901140328 79 360 0.0 2.0 0.00 0.14 0.00 90 1012.2
20260901135836 79 360 0.0 2.0 0.00 0.14 0.00 90 1012.1
20260901135345 78 360 0.0 2.0 0.00 0.14 0.00 91 1012.1
20260901134854 78 198 0.0 3.0 0.00 0.17 0.00 91 1012.2
20260901134323 78 360 0.0 4.0 0.00 0.17 0.00 91 1012.2
20260901133832 78 360 1.0 4.0 0.00 0.17 0.00 91 1012.1
20260901133336 77 360 0.0 6.0 0.00 0.17 0.00 92 1012.1
20260901132825 77 360 3.0 6.0 0.00 0.17 0.00 92 1012.1
20260901132340 77 360 0.0 4.0 0.00 0.17 0.00 93 1012.2
20260901131830 77 360 1.0 5.0 0.00 0.17 0.00 93 1012.1
20260901131340 76 208 0.0 5.0 0.00 0.17 0.00 93 1012.2
20260901130848 76 360 3.0 5.0 0.00 0.17 0.00 93 1012.1
20260901130336 76 195 0.0 5.0 0.00 0.17 0.00 94 1012.1
20260901125826 76 209 3.0 5.0 0.00 0.17 0.00 94 1012.2
20260901125337 76 360 2.0 5.0 0.00 0.17 0.00 94 1012.3
20260901124827 76 207 2.0 6.0 0.00 0.20 0.00 94 1012.2
20260901124337 75 360 4.0 6.0 0.00 0.20 0.00 94 1012.2
20260901123845 75 360 3.0 5.0 0.00 0.20 0.00 94 1012.1
20260901123353 75 360 3.0 6.0 0.00 0.20 0.00 95 1012.0
20260901122840 75 209 2.0 6.0 0.00 0.20 0.00 95 1012.0
20260901122330 75 360 1.0 4.0 0.00 0.20 0.00 95 1011.9
20260901121839 75 360 0.0 3.0 0.00 0.20 0.00 96 1011.9
20260901121330 74 211 0.0 3.0 0.00 0.20 0.00 95 1011.9
20260901120835 74 360 1.0 3.0 0.00 0.20 0.00 95 1011.8
20260901120340 74 213 0.0 1.0 0.00 0.20 0.00 96 1011.8
20260901115848 74 211 0.0 0.0 0.00 0.20 0.00 95 1011.7
20260901115337 74 213 0.0 1.0 0.00 0.20 0.00 95 1011.6
20260901114827 74 213 0.0 2.0 0.00 0.23 0.00 95 1011.6
20260901114338 73 212 0.0 1.0 0.00 0.23 0.00 95 1011.6
20260901113827 73 360 0.0 2.0 0.00 0.23 0.00 95 1011.6
20260901113337 73 360 0.0 2.0 0.00 0.23 0.00 95 1011.7
20260901112827 73 360 0.0 3.0 0.00 0.23 0.00 95 1011.8
20260901112336 73 360 1.0 3.0 0.00 0.23 0.00 95 1011.7
20260901111825 73 360 2.0 3.0 0.00 0.23 0.00 95 1011.5
20260901111334 73 215 1.0 2.0 0.00 0.23 0.00 95 1011.4
20260901110822 73 215 0.0 4.0 0.00 0.23 0.00 95 1011.3
20260901110330 73 360 2.0 4.0 0.00 0.23 0.00 95 1011.3
20260901105839 73 360 0.0 3.0 0.00 0.23 0.00 95 1011.2
20260901105329 73 216 1.0 3.0 0.00 0.23 0.00 95 1011.1
20260901104836 73 360 0.0 0.0 0.00 0.23 0.00 95 1011.1
20260901104347 73 360 0.0 0.0 0.00 0.23 0.00 95 1010.9
20260901103840 73 360 0.0 0.0 0.00 0.23 0.23 95 1011.0
20260901103350 73 360 0.0 0.0 0.00 0.23 0.23 95 1010.8
20260901102835 73 360 0.0 0.0 0.00 0.23 0.23 95 1011.0
20260901102323 73 217 0.0 0.0 0.00 0.23 0.23 95 1011.0
20260901101832 74 217 0.0 0.0 0.00 0.23 0.23 95 1011.0
20260901101341 74 360 0.0 2.0 0.00 0.23 0.23 95 1011.0
20260901100829 74 360 0.0 3.0 0.00 0.23 0.23 95 1010.9
20260901100339 74 360 2.0 3.0 0.00 0.23 0.23 95 1010.9
20260901095828 74 360 2.0 3.0 0.00 0.23 0.23 95 1010.8
20260901095336 74 360 2.0 3.0 0.00 0.23 0.23 94 1011.0
20260901094826 74 219 0.0 0.0 0.00 0.23 0.23 94 1011.0
20260901094336 74 360 0.0 0.0 0.00 0.23 0.23 94 1011.1
20260901093844 74 360 0.0 0.0 0.01 0.23 0.23 94 1011.0
20260901093332 74 221 0.0 1.0 0.01 0.23 0.23 94 1011.1
20260901092840 74 360 0.0 2.0 0.01 0.23 0.23 94 1011.0
20260901092350 74 219 0.0 4.0 0.01 0.23 0.23 94 1011.0
20260901091839 74 360 1.0 4.0 0.01 0.23 0.23 94 1011.0
20260901091329 74 219 2.0 4.0 0.01 0.23 0.23 94 1011.0
20260901090837 74 360 2.0 4.0 0.01 0.23 0.23 95 1011.0
20260901090326 74 360 2.0 4.0 0.01 0.23 0.23 94 1010.8
20260901085835 74 360 1.0 3.0 0.01 0.23 0.23 94 1010.8
20260901085325 74 360 1.0 4.0 0.01 0.23 0.23 94 1010.8
20260901084832 74 360 2.0 5.0 0.01 0.23 0.23 94 1010.8
20260901084323 74 360 4.0 5.0 0.01 0.23 0.23 94 1010.8
20260901083858 74 360 3.0 5.0 0.00 0.22 0.22 94 1010.8
20260901083327 74 214 2.0 5.0 0.00 0.22 0.22 94 1010.7
20260901082837 74 360 3.0 5.0 0.00 0.22 0.22 94 1010.7
20260901082328 74 214 3.0 4.0 0.00 0.22 0.22 94 1010.6
20260901081837 74 360 0.0 0.0 0.00 0.22 0.22 94 1010.7
20260901081348 74 214 0.0 0.0 0.00 0.22 0.22 94 1010.6
20260901080855 74 214 0.0 0.0 0.00 0.22 0.22 94 1010.6
20260901080323 74 214 0.0 0.0 0.00 0.22 0.22 94 1010.6
20260901075833 74 360 0.0 0.0 0.00 0.22 0.22 93 1010.6
20260901075321 74 360 0.0 0.0 0.00 0.22 0.22 93 1010.6
20260901074858 75 215 0.0 0.0 0.00 0.22 0.22 93 1010.6
20260901074328 75 360 0.0 0.0 0.00 0.22 0.22 93 1010.6
20260901073835 75 215 0.0 0.0 0.00 0.22 0.22 93 1010.5
20260901073325 75 360 0.0 0.0 0.00 0.22 0.22 92 1010.6
20260901072834 75 360 0.0 0.0 0.00 0.22 0.22 92 1010.6
20260901072342 75 360 0.0 0.0 0.00 0.22 0.22 92 1010.6
20260901071848 75 360 0.0 0.0 0.00 0.22 0.22 92 1010.5
20260901071353 75 215 0.0 0.0 0.00 0.22 0.22 91 1010.5
20260901070837 76 360 0.0 0.0 0.00 0.22 0.22 91 1010.6
20260901070347 76 215 0.0 0.0 0.00 0.22 0.22 91 1010.6
20260901065856 76 360 0.0 2.0 0.00 0.22 0.22 91 1010.5
20260901065344 76 360 0.0 3.0 0.00 0.22 0.22 91 1010.6
20260901064855 76 360 1.0 3.0 0.00 0.22 0.22 91 1010.6
20260901064325 76 211 2.0 4.0 0.00 0.22 0.22 91 1010.6
20260901063832 76 214 2.0 4.0 0.00 0.22 0.22 91 1010.6
20260901063322 76 213 0.0 3.0 0.00 0.22 0.22 91 1010.7
20260901062831 76 213 1.0 3.0 0.00 0.22 0.22 91 1010.7
20260901062340 76 360 2.0 3.0 0.00 0.22 0.22 90 1010.7
20260901061829 76 212 0.0 0.0 0.00 0.22 0.22 90 1010.7
20260901061340 76 212 0.0 2.0 0.00 0.22 0.22 90 1010.6
20260901060828 76 360 0.0 3.0 0.00 0.22 0.22 90 1010.7
20260901060339 76 205 1.0 3.0 0.00 0.22 0.22 90 1010.6
20260901055846 76 211 1.0 4.0 0.00 0.22 0.22 90 1010.7
20260901055331 77 360 2.0 4.0 0.00 0.22 0.22 89 1010.6
20260901054841 77 360 3.0 5.0 0.00 0.22 0.22 89 1010.6
20260901054332 77 360 3.0 5.0 0.00 0.22 0.22 90 1010.7
20260901053840 77 211 3.0 5.0 0.00 0.22 0.22 90 1010.7
20260901053330 77 360 4.0 5.0 0.00 0.22 0.22 90 1010.6
20260901052839 77 212 4.0 5.0 0.00 0.22 0.22 90 1010.6
20260901052329 77 212 4.0 6.0 0.00 0.22 0.22 90 1010.7
20260901051838 77 360 4.0 6.0 0.00 0.22 0.22 90 1010.7
20260901051347 77 212 4.0 6.0 0.00 0.22 0.22 90 1010.8
20260901050854 77 211 3.0 6.0 0.00 0.22 0.22 90 1010.7
20260901050343 77 360 4.0 6.0 0.00 0.22 0.22 90 1010.7
20260901045823 77 360 4.0 6.0 0.00 0.22 0.22 91 1010.8
20260901045332 76 360 4.0 5.0 0.00 0.22 0.22 91 1010.8
20260901044823 76 360 3.0 4.0 0.00 0.22 0.22 91 1010.7
20260901044335 77 211 3.0 4.0 0.00 0.22 0.22 91 1010.8
20260901043845 77 360 3.0 4.0 0.00 0.22 0.22 91 1010.8
20260901043354 77 360 3.0 4.0 0.00 0.22 0.22 90 1010.8
20260901042822 77 360 3.0 4.0 0.00 0.22 0.22 90 1010.7
20260901042332 77 209 1.0 4.0 0.00 0.22 0.22 90 1010.7
20260901041837 77 360 1.0 4.0 0.00 0.22 0.22 90 1010.8
20260901041349 77 208 2.0 4.0 0.00 0.22 0.22 90 1010.8
20260901040836 77 360 1.0 5.0 0.00 0.22 0.22 90 1010.7
20260901040325 77 360 3.0 6.0 0.00 0.22 0.22 90 1010.8
20260901035835 77 209 3.0 6.0 0.00 0.22 0.22 90 1010.8
20260901035346 77 360 4.0 6.0 0.00 0.22 0.22 90 1010.8
20260901034855 77 208 4.0 5.0 0.01 0.22 0.22 90 1010.8
20260901034324 77 360 2.0 4.0 0.01 0.22 0.22 90 1010.8
20260901033900 78 360 2.0 4.0 0.01 0.22 0.22 89 1010.8
20260901033348 78 360 2.0 5.0 0.01 0.22 0.22 89 1010.9
20260901032837 78 360 3.0 5.0 0.01 0.22 0.22 89 1011.0
20260901032328 78 209 3.0 5.0 0.01 0.22 0.22 89 1011.0
20260901031839 78 206 3.0 5.0 0.01 0.22 0.22 89 1010.9
20260901031328 78 360 3.0 5.0 0.01 0.22 0.22 88 1011.0
20260901030835 78 360 2.0 4.0 0.01 0.22 0.22 88 1010.9
20260901030326 78 360 3.0 6.0 0.01 0.22 0.22 88 1010.9
20260901025836 78 203 4.0 6.0 0.01 0.22 0.22 88 1011.0
20260901025326 78 360 3.0 6.0 0.01 0.22 0.22 88 1011.0
20260901024830 78 360 3.0 5.0 0.00 0.21 0.21 88 1011.1
20260901024340 78 360 2.0 5.0 0.00 0.21 0.21 87 1011.0
20260901023829 79 212 3.0 4.0 0.00 0.21 0.21 87 1010.9
20260901023339 79 212 2.0 5.0 0.00 0.21 0.21 87 1010.9
20260901022848 79 360 4.0 6.0 0.00 0.21 0.21 87 1011.0
20260901022335 79 360 4.0 6.0 0.00 0.21 0.21 86 1011.1
20260901021826 79 211 5.0 6.0 0.00 0.21 0.21 86 1011.2
20260901021338 79 360 4.0 5.0 0.00 0.21 0.21 86 1011.1
20260901020846 79 360 3.0 6.0 0.00 0.21 0.21 86 1011.0
20260901020353 79 360 4.0 6.0 0.00 0.21 0.21 86 1011.1
20260901015823 79 360 3.0 5.0 0.00 0.21 0.21 86 1011.1
20260901015333 79 360 2.0 5.0 0.00 0.21 0.21 85 1011.0
20260901014822 79 360 2.0 4.0 0.00 0.21 0.21 85 1011.0
20260901014334 80 360 1.0 8.0 0.00 0.21 0.21 85 1010.9
20260901013821 80 360 4.0 8.0 0.00 0.21 0.21 85 1010.7
20260901013359 80 360 2.0 6.0 0.00 0.21 0.21 85 1010.7
20260901012830 80 360 3.0 3.0 0.00 0.21 0.21 85 1010.8
20260901012340 80 360 2.0 3.0 0.00 0.21 0.21 85 1010.9
20260901011829 80 360 1.0 6.0 0.00 0.21 0.21 85 1010.8
20260901011337 80 360 2.0 6.0 0.00 0.21 0.21 85 1010.7
20260901010846 80 360 2.0 4.0 0.00 0.21 0.21 85 1010.5
20260901010334 80 360 2.0 5.0 0.00 0.21 0.21 85 1010.8
20260901005843 80 360 2.0 6.0 0.00 0.21 0.21 84 1010.7
20260901005354 80 360 2.0 6.0 0.00 0.21 0.21 84 1010.8